Погода в Чаусах

Беларусь     53°48′26″N   30°58′24″E
темп.,
°C
ветер,
м/с
пор.,
м/с
влажн.,
%
обл.,
%
осадки,
мм/ч
давл.,
гПа
погр.,
м
8 марта, пн
пн800:00−4з6138750 0.1 1004381
03:00−5з5129025 0.1 1004337
06:00−7з511935 0.0 1004342
09:00−7з5109337 0.0 1006441
12:00−3сз468482 0.2 1008880
15:00−3ссз677789 0.4 10081045
18:00−5сз488689 0.1 1011440
21:00−8ссз379392 0.1 1013136
9 марта, вт
вт900:00−10ссз489258 0.0 1015192
03:00−13ссз369432 0.0 1017114
06:00−14ссз359517 0.0 101897
09:00−12ссз36948 0.0 1020206
12:00−7ссз468755 0.0 1021733
15:00−6сз468177 0.1 1022971
18:00−8сз3585100 0.1 1022112
21:00−11сз228666 0.1 102421
10 марта, ср
ср1000:00−12зюз12840 0.0 102521
03:00−11юз348722 0.0 102465
06:00−8зюз4991100 0.0 1024263
09:00−7з51093100 0.2 1025353
12:00−4зсз5886100 0.3 1025645
15:00−5св4595100 1.2 1026357
18:00−8всв5793100 0.6 1027351
21:00−12в499292 0.6 1029223
11 марта, чт
чт1100:00−15в499086 0.0 1031203
03:00−17вюв469287 0.0 1031133
06:00−18вюв479385 0.0 1032149
09:00−16юв478348 0.0 1032231
12:00−11юв46888 0.0 1031323
15:00−8ююв57875 0.0 1029436
18:00−9юв5109161 0.0 1027373
21:00−11ююв6119472 0.0 1026334
12 марта, пт
пт1200:00−11ююв71393100 0.0 1024358
03:00−9ююв81590100 0.0 1021437
06:00−7ююв81684100 0.0 1017638
09:00−5ю101893100 0.3 1013820
12:00−3ю111795100 2.6 10111034
15:00−1ю101695100 3.7 1009753
18:00+1ююз71399100 0.3 1008433
21:00+1юз51199100 0.8 1008365